DW1477 Lanjaron ES current weather conditions

sailwx.info

Wind from 103

Air temperature 22.8° C
Dewpoint 9.9° C

Last reported at 2017-Sep-26 09:00 UTC.
Time now 2017-Sep-26 09:29 UTC

Location: N 36°55' W 003°28'.
View on Google Maps.

See reports from other nearby stations

  
Tides and Currents Weather Stations Pressure Air Temp Water Temp Dewpoint Dewpoint Depression Visibility Wind Speed Wind Dir Waves Ship Positions
date/time (UTC)wind fromknots sea level pressurealtimeterstation pressurevisibilityair tempwater tempwave heightnotes
2017-Sep-26 09:10 103 23.3
2017-Sep-26 09:00 103 22.8
2017-Sep-26 08:50 103 22.2
2017-Sep-26 08:40 103 21.7
2017-Sep-26 08:30 103 21.1
2017-Sep-26 08:20 103 20.6
2017-Sep-26 08:10 103 19.4
2017-Sep-26 08:00 103 18.9
2017-Sep-26 07:40 103 0 gusting 2 17.8
2017-Sep-26 07:30 103 0 gusting 1 17.8
2017-Sep-26 07:20 103 17.8
2017-Sep-26 07:00 103 0 gusting 1 17.2
2017-Sep-26 06:30 103 0 gusting 2 17.2
2017-Sep-26 06:10 103 0 gusting 2 17.2
2017-Sep-26 05:50 103 0 gusting 2 17.2
2017-Sep-26 05:30 103 0 gusting 2 16.7
2017-Sep-26 05:00 103 16.7
2017-Sep-26 04:10 103 0 gusting 2 17.2
2017-Sep-26 04:00 103 0 gusting 2 17.2
2017-Sep-26 03:20 103 17.2
2017-Sep-26 03:10 103 17.8
2017-Sep-26 02:50 103 0 gusting 2 18.3
2017-Sep-26 02:40 103 0 gusting 2 18.3
2017-Sep-26 02:00 103 0 gusting 2 17.8
2017-Sep-26 01:50 103 0 gusting 2 17.8
2017-Sep-26 01:40 103 0 gusting 2 17.8
2017-Sep-26 01:30 103 17.8
2017-Sep-26 01:20 103 0 gusting 2 17.8
2017-Sep-26 01:00 103 0 gusting 2 17.8
2017-Sep-26 00:30 103 0 gusting 2 18.3
2017-Sep-26 00:20 103 18.3
2017-Sep-26 00:10 103 0 gusting 2 18.3
2017-Sep-25 23:40 103 0 gusting 2 18.9
2017-Sep-25 23:30 103 0 gusting 2 18.9
2017-Sep-25 23:20 103 0 gusting 2 18.9
2017-Sep-25 22:00 104 19.4
2017-Sep-25 21:40 104 0 gusting 2 19.4
2017-Sep-25 21:10 104 1 gusting 2 20.0
2017-Sep-25 19:50 140 19.4
2017-Sep-25 19:40 140 0 gusting 2 19.4
2017-Sep-25 19:00 140 20.6
2017-Sep-25 18:40 136 21.1
2017-Sep-25 18:30 136 0 gusting 2 21.7
2017-Sep-25 17:40 136 23.3
2017-Sep-25 17:30 136 23.3
2017-Sep-25 17:20 122 23.9
2017-Sep-25 17:10 122 24.4
2017-Sep-25 17:00 176 24.4
2017-Sep-25 16:50 208 0 gusting 2 25.6
2017-Sep-25 16:30 224 0 gusting 4 26.1
2017-Sep-25 16:00 071 0 gusting 6 25.6
2017-Sep-25 15:50 094 0 gusting 5 26.1
2017-Sep-25 15:20 033 0 gusting 4 26.7
2017-Sep-25 15:10 064 0 gusting 4 26.7
2017-Sep-25 15:00 288 0 gusting 4 26.7
2017-Sep-25 14:50 347 0 gusting 2 27.2
2017-Sep-25 14:40 315 0 gusting 5 27.2
2017-Sep-25 14:00 347 26.7
2017-Sep-25 13:20 104 0 gusting 6 26.1
2017-Sep-25 13:10 265 0 gusting 5 26.7
2017-Sep-25 13:00 267 26.7
2017-Sep-25 12:40 030 0 gusting 5 26.1
2017-Sep-25 12:20 315 25.6
2017-Sep-25 12:00 097 0 gusting 5 25.6
2017-Sep-25 11:40 156 0 gusting 4 25.6
2017-Sep-25 11:30 194 0 gusting 4 25.6
2017-Sep-25 10:30 267 27.2
2017-Sep-25 10:20 270 26.7
2017-Sep-25 10:10 270 26.7
2017-Sep-25 09:40 270 25.6
2017-Sep-25 09:30 270 25.0
2017-Sep-25 09:00 270 22.2
2017-Sep-25 08:30 270 20.6
2017-Sep-25 08:10 270 18.9
2017-Sep-25 08:00 270 18.3
2017-Sep-25 07:40 270 17.8
2017-Sep-25 07:30 270 17.2
2017-Sep-25 07:20 270 17.2
2017-Sep-25 07:00 270 1 gusting 2 16.1
2017-Sep-25 05:50 270 1 gusting 2 15.6
2017-Sep-25 05:40 270 0 gusting 2 15.6
2017-Sep-25 05:30 270 0 gusting 1 16.1
2017-Sep-25 05:20 270 16.1
2017-Sep-25 05:10 270 0 gusting 2 16.1
2017-Sep-25 04:50 270 0 gusting 2 16.7
2017-Sep-25 04:40 270 17.2
2017-Sep-25 04:30 270 1 gusting 2 16.7
2017-Sep-25 03:20 270 17.2
2017-Sep-25 00:40 270 17.2
2017-Sep-25 00:30 270 0 gusting 2 17.2
2017-Sep-25 00:00 270 17.8
2017-Sep-24 23:50 270 17.8
2017-Sep-24 22:40 270 17.8
2017-Sep-24 22:20 270 0 gusting 2 17.8
2017-Sep-24 22:10 270 17.8
2017-Sep-24 22:00 270 17.8
2017-Sep-24 21:30 270 17.8
2017-Sep-24 21:10 270 17.8
2017-Sep-24 21:00 270 17.8
2017-Sep-24 20:00 270 18.3
2017-Sep-24 19:30 270 18.9
2017-Sep-24 19:20 270 18.9
2017-Sep-24 19:00 270 19.4
2017-Sep-24 18:50 270 20.0
2017-Sep-24 18:20 270 21.7
2017-Sep-24 18:00 270 22.2
2017-Sep-24 17:30 271 23.3
2017-Sep-24 17:10 271 23.3
2017-Sep-24 16:40 271 1 gusting 8 23.3
2017-Sep-24 16:30 256 2 gusting 8 23.3
2017-Sep-24 16:20 262 1 gusting 5 23.9
2017-Sep-24 16:00 301 3 gusting 10 23.9
2017-Sep-24 15:50 296 1 gusting 6 23.9
2017-Sep-24 15:30 276 2 gusting 8 24.4
2017-Sep-24 14:50 244 0 gusting 4 24.4
2017-Sep-24 14:30 276 1 gusting 8 24.4
2017-Sep-24 13:40 254 4 gusting 7 24.4
2017-Sep-24 13:30 212 2 gusting 8 24.4
2017-Sep-24 13:20 224 1 gusting 10 23.3
2017-Sep-24 13:00 262 2 gusting 8 23.3
2017-Sep-24 12:50 266 2 gusting 8 22.8
2017-Sep-24 12:10 274 1 gusting 7 23.9
2017-Sep-24 11:40 260 1 gusting 6 23.3
2017-Sep-24 11:30 255 1 gusting 6 23.3
2017-Sep-24 11:10 249 0 gusting 7 23.3
2017-Sep-24 11:00 229 1 gusting 7 23.3
2017-Sep-24 10:50 240 0 gusting 4 23.3
2017-Sep-24 09:50 244 21.7
2017-Sep-24 09:40 244 21.1
2017-Sep-24 09:10 244 19.4